Torna al catalogo

COSMOS 2251 DEB

AttivoLEO
NORAD 33945·DEBRIS·🇷🇺 Russia

Lanciato Jun 16, 1993 da Plesetsk Cosmodrome

Loading…

Prossimi Passaggi (prossime 24 ore)

TLE

AggiornatoSource: Space-Track

Epoca: Sep 13, 2026, 20:39 UTC

1 33945U 93036FA  26256.86077871  .00000170  00000-0  69061-4 0  9994
2 33945  74.0304 162.0719 0023001 187.8337 172.2460 14.34771787919610

Traccia COSMOS 2251 DEB in tempo reale con AllMySat

Download on the App Store